Time,TemperatureF,DewpointF,PressureIn,WindDirection,WindDirectionDegrees,WindSpeedMPH,WindSpeedGustMPH,Humidity,HourlyPrecipIn,Conditions,Clouds,dailyrainin,SoftwareType,DateUTC
2013-01-16 00:00:00,31.8,31.0,30.17,ENE,60,0.0,1.0,97,0.12,,RA,0.00,VWS V14.01,2013-01-16 05:00:00,
2013-01-16 00:02:00,31.8,31.0,30.17,East,83,0.0,1.0,97,0.12,,RA,0.00,VWS V14.01,2013-01-16 05:02:00,
2013-01-16 00:07:00,31.8,31.0,30.16,East,83,0.0,2.0,97,0.12,,RA,0.01,VWS V14.01,2013-01-16 05:07:00,
2013-01-16 00:12:00,31.8,31.0,30.16,NE,54,0.0,0.0,97,0.12,,RA,0.02,VWS V14.01,2013-01-16 05:12:00,
2013-01-16 00:17:00,31.9,31.1,30.16,NE,54,0.0,1.0,97,0.12,,RA,0.03,VWS V14.01,2013-01-16 05:17:00,
2013-01-16 00:22:00,31.9,31.1,30.16,NNE,13,0.0,0.0,97,0.13,,RA,0.04,VWS V14.01,2013-01-16 05:22:00,
2013-01-16 00:27:00,31.8,31.0,30.16,NE,54,0.0,0.0,97,0.12,,RA,0.04,VWS V14.01,2013-01-16 05:27:00,
2013-01-16 00:32:00,31.9,31.1,30.16,NE,34,0.0,0.0,97,0.12,,RA,0.05,VWS V14.01,2013-01-16 05:32:00,
2013-01-16 00:37:00,31.8,31.3,30.16,NE,34,0.0,0.0,98,0.11,,RA,0.06,VWS V14.01,2013-01-16 05:37:00,
2013-01-16 00:42:00,31.8,31.3,30.16,NE,34,0.0,0.0,98,0.11,,RA,0.07,VWS V14.01,2013-01-16 05:42:00,
2013-01-16 00:47:00,31.8,31.3,30.15,ESE,103,1.0,1.0,98,0.11,,RA,0.08,VWS V14.01,2013-01-16 05:47:00,
2013-01-16 00:52:00,31.7,31.2,30.15,NE,41,0.0,1.0,98,0.11,,RA,0.09,VWS V14.01,2013-01-16 05:52:00,
2013-01-16 00:57:00,31.7,31.2,30.14,ENE,63,0.0,1.0,98,0.11,,RA,0.10,VWS V14.01,2013-01-16 05:57:00,
2013-01-16 01:02:00,31.7,31.2,30.14,ESE,103,0.0,3.0,98,0.10,,RA,0.10,VWS V14.01,2013-01-16 06:02:00,
2013-01-16 01:07:00,31.6,31.1,30.14,NE,44,1.0,1.0,98,0.10,,RA,0.11,VWS V14.01,2013-01-16 06:07:00,
2013-01-16 01:12:00,31.6,31.1,30.14,NE,42,0.0,1.0,98,0.10,,RA,0.12,VWS V14.01,2013-01-16 06:12:00,
2013-01-16 01:17:00,31.6,31.1,30.13,East,88,0.0,1.0,98,0.09,,RA,0.12,VWS V14.01,2013-01-16 06:17:00,
2013-01-16 01:23:00,31.6,31.1,30.14,ENE,62,0.0,0.0,98,0.10,,RA,0.13,VWS V14.01,2013-01-16 06:23:00,
2013-01-16 01:28:00,31.6,31.1,30.13,WSW,252,0.0,1.0,98,0.09,,RA,0.13,VWS V14.01,2013-01-16 06:28:00,
2013-01-16 01:33:00,31.6,31.1,30.14,NNW,330,0.0,0.0,98,0.09,,RA,0.14,VWS V14.01,2013-01-16 06:33:00,
2013-01-16 01:38:00,31.6,31.4,30.14,NE,39,0.0,1.0,99,0.09,,RA,0.15,VWS V14.01,2013-01-16 06:38:00,
2013-01-16 01:43:00,31.6,31.4,30.14,NE,47,0.0,1.0,99,0.10,,RA,0.16,VWS V14.01,2013-01-16 06:43:00,
2013-01-16 01:48:00,31.6,31.4,30.13,East,82,0.0,1.0,99,0.09,,RA,0.16,VWS V14.01,2013-01-16 06:48:00,
2013-01-16 01:53:00,31.6,31.4,30.12,East,97,0.0,3.0,99,0.10,,RA,0.18,VWS V14.01,2013-01-16 06:53:00,
2013-01-16 01:58:00,31.5,31.2,30.12,NW,316,0.0,3.0,99,0.10,,RA,0.19,VWS V14.01,2013-01-16 06:58:00,
2013-01-16 02:03:00,31.6,31.4,30.12,East,96,0.0,1.0,99,0.10,,,0.20,VWS V14.01,2013-01-16 07:03:00,
2013-01-16 02:08:00,31.6,31.4,30.12,ENE,77,2.0,2.0,99,0.11,,,0.22,VWS V14.01,2013-01-16 07:08:00,
2013-01-16 02:13:00,31.5,31.2,30.12,NE,56,0.0,1.0,99,0.12,,,0.23,VWS V14.01,2013-01-16 07:13:00,
2013-01-16 02:18:00,31.5,31.2,30.13,WNW,298,0.0,1.0,99,0.12,,,0.24,VWS V14.01,2013-01-16 07:18:00,
2013-01-16 02:23:00,31.5,31.2,30.13,East,81,0.0,1.0,99,0.13,,,0.25,VWS V14.01,2013-01-16 07:23:00,
2013-01-16 02:28:00,31.5,31.2,30.12,NNE,32,1.0,1.0,99,0.14,,,0.27,VWS V14.01,2013-01-16 07:28:00,
2013-01-16 02:33:00,31.5,31.2,30.12,NE,51,0.0,1.0,99,0.14,,,0.28,VWS V14.01,2013-01-16 07:33:00,
2013-01-16 02:38:00,31.5,31.2,30.12,East,98,0.0,1.0,99,0.14,,,0.29,VWS V14.01,2013-01-16 07:38:00,
2013-01-16 02:43:00,31.4,31.1,30.11,ESE,110,1.0,1.0,99,0.15,,,0.30,VWS V14.01,2013-01-16 07:43:00,
2013-01-16 02:48:00,31.4,31.1,30.11,East,94,1.0,1.0,99,0.15,,,0.31,VWS V14.01,2013-01-16 07:48:00,
2013-01-16 02:54:00,31.4,31.1,30.11,East,94,0.0,2.0,99,0.15,,,0.32,VWS V14.01,2013-01-16 07:54:00,
2013-01-16 02:59:00,31.4,31.1,30.10,East,86,0.0,1.0,99,0.14,,,0.32,VWS V14.01,2013-01-16 07:59:00,
2013-01-16 03:04:00,31.4,31.1,30.11,WNW,285,0.0,1.0,99,0.14,,,0.33,VWS V14.01,2013-01-16 08:04:00,
2013-01-16 03:09:00,31.4,31.1,30.10,ESE,103,0.0,1.0,99,0.12,,,0.33,VWS V14.01,2013-01-16 08:09:00,
2013-01-16 03:14:00,31.4,31.4,30.10,East,94,0.0,1.0,100,0.12,,,0.34,VWS V14.01,2013-01-16 08:14:00,
2013-01-16 03:19:00,31.4,31.4,30.10,East,96,0.0,0.0,100,0.11,,,0.34,VWS V14.01,2013-01-16 08:19:00,
2013-01-16 03:24:00,31.4,31.4,30.10,ESE,112,0.0,0.0,100,0.11,,,0.35,VWS V14.01,2013-01-16 08:24:00,
2013-01-16 03:29:00,31.4,31.4,30.09,East,101,0.0,1.0,100,0.09,,,0.35,VWS V14.01,2013-01-16 08:29:00,
2013-01-16 03:34:00,31.4,31.4,30.08,ESE,118,0.0,1.0,100,0.08,,FZRA,0.35,VWS V14.01,2013-01-16 08:34:00,
2013-01-16 03:39:00,31.5,31.5,30.08,ESE,105,1.0,2.0,100,0.08,,FZRA,0.36,VWS V14.01,2013-01-16 08:39:00,
2013-01-16 03:44:00,31.6,31.6,30.08,SE,124,3.0,6.0,100,0.06,,FZRA,0.36,VWS V14.01,2013-01-16 08:44:00,
2013-01-16 03:49:00,31.6,31.4,30.08,ESE,118,2.0,4.0,99,0.06,,FZRA,0.36,VWS V14.01,2013-01-16 08:49:00,
2013-01-16 03:54:00,31.6,31.4,30.08,SE,138,0.0,3.0,99,0.05,,FZRA,0.36,VWS V14.01,2013-01-16 08:54:00,
2013-01-16 03:59:00,31.7,31.5,30.08,ESE,122,0.0,2.0,99,0.04,,FZRA,0.36,VWS V14.01,2013-01-16 08:59:00,
2013-01-16 04:04:00,31.7,31.5,30.08,ESE,107,0.0,4.0,99,0.03,,FZRA,0.36,VWS V14.01,2013-01-16 09:04:00,
2013-01-16 04:09:00,31.7,31.5,30.07,ESE,113,3.0,3.0,99,0.03,,FZRA,0.36,VWS V14.01,2013-01-16 09:09:00,
2013-01-16 04:14:00,31.7,31.5,30.07,ESE,118,1.0,7.0,99,0.03,,FZRA,0.37,VWS V14.01,2013-01-16 09:14:00,
2013-01-16 04:19:00,31.8,31.5,30.07,ESE,108,2.0,4.0,99,0.03,,FZRA,0.37,VWS V14.01,2013-01-16 09:19:00,
2013-01-16 04:24:00,31.8,31.5,30.06,SE,136,3.0,5.0,99,0.03,,FZRA,0.37,VWS V14.01,2013-01-16 09:24:00,
2013-01-16 04:29:00,31.8,31.5,30.06,ESE,121,1.0,4.0,99,0.02,,FZRA,0.37,VWS V14.01,2013-01-16 09:29:00,
2013-01-16 04:34:00,31.8,31.5,30.06,ESE,121,1.0,4.0,99,0.02,,,0.37,VWS V14.01,2013-01-16 09:34:00,
2013-01-16 04:39:00,31.8,31.5,30.05,ESE,121,1.0,2.0,99,0.02,,,0.37,VWS V14.01,2013-01-16 09:39:00,
2013-01-16 04:44:00,31.8,31.5,30.04,ESE,104,3.0,3.0,99,0.01,,,0.37,VWS V14.01,2013-01-16 09:44:00,
2013-01-16 04:49:00,31.9,31.4,30.04,SSE,150,0.0,6.0,98,0.01,,,0.37,VWS V14.01,2013-01-16 09:49:00,
2013-01-16 04:54:00,31.9,31.4,30.04,ESE,103,0.0,1.0,98,0.01,,,0.37,VWS V14.01,2013-01-16 09:54:00,
2013-01-16 04:59:00,31.8,31.3,30.04,ESE,104,0.0,7.0,98,0.01,,,0.37,VWS V14.01,2013-01-16 09:59:00,
2013-01-16 05:04:00,31.9,31.4,30.05,ESE,115,0.0,4.0,98,0.01,,,0.37,VWS V14.01,2013-01-16 10:04:00,
2013-01-16 05:09:00,31.9,31.4,30.05,SSE,156,0.0,1.0,98,0.01,,,0.37,VWS V14.01,2013-01-16 10:09:00,
2013-01-16 05:14:00,31.9,31.4,30.06,ESE,104,0.0,1.0,98,0.01,,,0.37,VWS V14.01,2013-01-16 10:14:00,
2013-01-16 05:19:00,31.8,31.5,30.06,ESE,103,1.0,1.0,99,0.00,,,0.37,VWS V14.01,2013-01-16 10:19:00,
2013-01-16 05:24:00,31.8,31.5,30.06,East,97,0.0,1.0,99,0.00,,,0.37,VWS V14.01,2013-01-16 10:24:00,
2013-01-16 05:30:00,31.8,31.5,30.06,East,101,1.0,1.0,99,0.00,,,0.37,VWS V14.01,2013-01-16 10:30:00,
2013-01-16 05:35:00,31.8,31.5,30.06,East,97,0.0,2.0,99,0.00,,,0.37,VWS V14.01,2013-01-16 10:35:00,
2013-01-16 05:40:00,31.8,31.5,30.05,East,85,0.0,1.0,99,0.00,,,0.37,VWS V14.01,2013-01-16 10:40:00,
2013-01-16 05:45:00,31.8,31.5,30.04,East,79,1.0,1.0,99,0.00,,,0.37,VWS V14.01,2013-01-16 10:45:00,
2013-01-16 05:50:00,31.8,31.5,30.04,ESE,108,0.0,1.0,99,0.00,,,0.37,VWS V14.01,2013-01-16 10:50:00,
2013-01-16 05:55:00,31.8,31.5,30.05,East,89,0.0,1.0,99,0.00,,,0.37,VWS V14.01,2013-01-16 10:55:00,
2013-01-16 06:00:00,31.8,31.5,30.05,ESE,108,0.0,1.0,99,0.00,,,0.37,VWS V14.01,2013-01-16 11:00:00,
2013-01-16 06:05:00,31.8,31.5,30.05,East,87,0.0,1.0,99,0.00,,-RA,0.37,VWS V14.01,2013-01-16 11:05:00,
2013-01-16 06:10:00,31.8,31.5,30.05,ENE,72,0.0,0.0,99,0.00,,-RA,0.37,VWS V14.01,2013-01-16 11:10:00,
2013-01-16 06:15:00,31.8,31.5,30.06,ENE,74,0.0,0.0,99,0.00,,-RA,0.37,VWS V14.01,2013-01-16 11:15:00,
2013-01-16 06:20:00,31.8,31.5,30.06,ENE,74,0.0,0.0,99,0.00,,-RA,0.37,VWS V14.01,2013-01-16 11:20:00,
2013-01-16 06:25:00,31.8,31.5,30.06,NE,49,0.0,0.0,99,0.00,,-RA,0.37,VWS V14.01,2013-01-16 11:25:00,
2013-01-16 06:30:00,31.7,31.5,30.06,NW,316,0.0,0.0,99,0.00,,-RA,0.37,VWS V14.01,2013-01-16 11:30:00,
2013-01-16 06:35:00,31.7,31.5,30.06,NW,304,0.0,0.0,99,0.00,,-RA,0.37,VWS V14.01,2013-01-16 11:35:00,
2013-01-16 06:40:00,31.7,31.5,30.06,WNW,303,0.0,0.0,99,0.00,,-RA,0.37,VWS V14.01,2013-01-16 11:40:00,
2013-01-16 06:45:00,31.7,31.5,30.06,WNW,303,0.0,0.0,99,0.00,,-RA,0.37,VWS V14.01,2013-01-16 11:45:00,
2013-01-16 06:50:00,31.6,31.4,30.05,WNW,303,0.0,0.0,99,0.00,,-RA,0.37,VWS V14.01,2013-01-16 11:50:00,
2013-01-16 06:55:00,31.6,31.4,30.04,West,274,0.0,0.0,99,0.00,,-RA,0.37,VWS V14.01,2013-01-16 11:55:00,
2013-01-16 07:01:00,31.7,31.5,30.04,West,275,0.0,0.0,99,0.00,,-RA,0.37,VWS V14.01,2013-01-16 12:01:00,
2013-01-16 07:06:00,31.7,31.7,30.04,West,275,0.0,0.0,100,0.00,,-RA,0.37,VWS V14.01,2013-01-16 12:06:00,
2013-01-16 07:11:00,31.7,31.7,30.04,West,276,0.0,0.0,100,0.00,,-RA,0.37,VWS V14.01,2013-01-16 12:11:00,
2013-01-16 07:16:00,31.7,31.7,30.03,West,274,0.0,0.0,100,0.00,,-RA,0.37,VWS V14.01,2013-01-16 12:16:00,
2013-01-16 07:21:00,31.6,31.6,30.02,SE,130,1.0,2.0,100,0.00,,-RA,0.37,VWS V14.01,2013-01-16 12:21:00,
2013-01-16 07:26:00,31.6,31.6,30.01,ESE,115,2.0,3.0,100,0.00,,-RA,0.37,VWS V14.01,2013-01-16 12:26:00,
2013-01-16 07:31:00,31.6,31.6,29.99,ESE,110,4.0,5.0,100,0.00,,-RA,0.37,VWS V14.01,2013-01-16 12:31:00,
2013-01-16 07:36:00,31.7,31.7,30.00,SE,124,2.0,3.0,100,0.00,,-RA,0.37,VWS V14.01,2013-01-16 12:36:00,
2013-01-16 07:41:00,31.7,31.5,30.00,SE,127,3.0,3.0,99,0.00,,-RA,0.37,VWS V14.01,2013-01-16 12:41:00,
2013-01-16 07:46:00,31.7,31.5,29.99,SE,129,0.0,1.0,99,0.00,,-RA,0.37,VWS V14.01,2013-01-16 12:46:00,
2013-01-16 07:51:00,31.7,31.5,30.00,ESE,105,0.0,0.0,99,0.00,,-RA,0.37,VWS V14.01,2013-01-16 12:51:00,
2013-01-16 07:56:00,31.8,31.5,30.01,East,100,0.0,0.0,99,0.00,,-RA,0.37,VWS V14.01,2013-01-16 12:56:00,
2013-01-16 08:01:00,31.8,31.5,30.00,ENE,73,0.0,0.0,99,0.00,,,0.37,VWS V14.01,2013-01-16 13:01:00,
2013-01-16 08:06:00,31.8,31.5,30.01,NE,54,0.0,0.0,99,0.00,,,0.37,VWS V14.01,2013-01-16 13:06:00,
2013-01-16 08:11:00,31.8,31.5,30.00,NE,54,0.0,0.0,99,0.00,,,0.37,VWS V14.01,2013-01-16 13:11:00,
2013-01-16 08:16:00,31.8,31.5,30.00,NE,54,0.0,0.0,99,0.00,,,0.37,VWS V14.01,2013-01-16 13:16:00,
2013-01-16 08:21:00,31.9,31.6,29.99,NE,54,0.0,0.0,99,0.00,,,0.37,VWS V14.01,2013-01-16 13:21:00,
2013-01-16 08:26:00,31.9,31.9,29.99,NE,54,0.0,0.0,100,0.00,,,0.37,VWS V14.01,2013-01-16 13:26:00,
2013-01-16 08:31:00,31.8,31.5,30.00,NE,54,0.0,0.0,99,0.00,,,0.37,VWS V14.01,2013-01-16 13:31:00,
2013-01-16 08:36:00,31.8,31.5,29.99,North,10,0.0,0.0,99,0.00,,,0.37,VWS V14.01,2013-01-16 13:36:00,
2013-01-16 08:41:00,31.8,31.8,29.99,East,100,0.0,0.0,100,0.00,,,0.37,VWS V14.01,2013-01-16 13:41:00,
2013-01-16 08:46:00,31.8,31.8,29.98,ESE,105,0.0,0.0,100,0.00,,,0.37,VWS V14.01,2013-01-16 13:46:00,
2013-01-16 08:51:00,31.7,31.7,29.99,ESE,113,0.0,0.0,100,0.00,,,0.37,VWS V14.01,2013-01-16 13:51:00,
2013-01-16 08:57:00,31.7,31.7,29.99,ESE,110,0.0,0.0,100,0.00,,,0.37,VWS V14.01,2013-01-16 13:57:00,
2013-01-16 09:02:00,31.7,31.7,29.98,ESE,102,0.0,0.0,100,0.00,,,0.37,VWS V14.01,2013-01-16 14:02:00,
2013-01-16 09:07:00,31.7,31.7,30.00,NW,317,0.0,0.0,100,0.00,,,0.37,VWS V14.01,2013-01-16 14:07:00,
2013-01-16 09:12:00,31.8,31.8,30.01,NW,307,0.0,0.0,100,0.00,,,0.37,VWS V14.01,2013-01-16 14:12:00,
2013-01-16 09:17:00,31.9,31.9,30.01,WNW,293,0.0,0.0,100,0.00,,,0.37,VWS V14.01,2013-01-16 14:17:00,
2013-01-16 09:22:00,31.8,31.8,30.02,WNW,298,0.0,0.0,100,0.00,,,0.37,VWS V14.01,2013-01-16 14:22:00,
2013-01-16 09:27:00,31.8,31.8,30.02,WNW,298,0.0,0.0,100,0.00,,,0.37,VWS V14.01,2013-01-16 14:27:00,
2013-01-16 09:32:00,31.8,31.8,30.03,WNW,296,0.0,0.0,100,0.00,,,0.37,VWS V14.01,2013-01-16 14:32:00,
2013-01-16 09:37:00,31.9,31.9,30.02,WNW,297,0.0,0.0,100,0.00,,,0.37,VWS V14.01,2013-01-16 14:37:00,
2013-01-16 09:42:00,31.9,31.9,30.03,West,278,0.0,0.0,100,0.00,,,0.37,VWS V14.01,2013-01-16 14:42:00,
2013-01-16 09:47:00,31.9,31.9,30.02,West,269,0.0,0.0,100,0.00,,,0.37,VWS V14.01,2013-01-16 14:47:00,
2013-01-16 09:52:00,31.9,31.9,30.03,West,259,0.0,0.0,100,0.00,,,0.37,VWS V14.01,2013-01-16 14:52:00,
2013-01-16 09:57:00,31.9,31.9,30.02,West,274,0.0,0.0,100,0.00,,,0.37,VWS V14.01,2013-01-16 14:57:00,
2013-01-16 10:02:00,31.9,31.9,30.02,West,270,0.0,0.0,100,0.00,,-RA,0.37,VWS V14.01,2013-01-16 15:02:00,
2013-01-16 10:07:00,31.9,31.9,30.00,West,270,0.0,0.0,100,0.00,,-RA,0.37,VWS V14.01,2013-01-16 15:07:00,
2013-01-16 10:12:00,31.9,31.9,29.98,SE,139,0.0,0.0,100,0.00,,-RA,0.37,VWS V14.01,2013-01-16 15:12:00,
2013-01-16 10:17:00,31.9,31.9,29.96,ESE,118,0.0,0.0,100,0.00,,-RA,0.37,VWS V14.01,2013-01-16 15:17:00,
2013-01-16 10:22:00,31.9,31.9,29.95,SE,145,0.0,0.0,100,0.00,,-RA,0.37,VWS V14.01,2013-01-16 15:22:00,
2013-01-16 10:27:00,31.9,31.9,29.97,SSW,205,0.0,0.0,100,0.00,,-RA,0.37,VWS V14.01,2013-01-16 15:27:00,
2013-01-16 10:32:00,32.0,32.0,29.97,SE,126,0.0,0.0,100,0.00,,-RA,0.37,VWS V14.01,2013-01-16 15:32:00,
2013-01-16 10:37:00,32.0,32.0,30.00,WNW,293,0.0,0.0,100,0.00,,-RA,0.37,VWS V14.01,2013-01-16 15:37:00,
2013-01-16 10:42:00,32.0,32.0,30.00,WNW,302,0.0,0.0,100,0.00,,-RA,0.37,VWS V14.01,2013-01-16 15:42:00,
2013-01-16 10:47:00,32.0,32.0,30.00,WNW,285,0.0,0.0,100,0.00,,-RA,0.37,VWS V14.01,2013-01-16 15:47:00,
2013-01-16 10:52:00,32.0,32.0,29.99,WNW,293,0.0,0.0,100,0.00,,-RA,0.37,VWS V14.01,2013-01-16 15:52:00,
2013-01-16 10:58:00,32.0,32.0,29.98,WNW,302,0.0,0.0,100,0.00,,-RA,0.37,VWS V14.01,2013-01-16 15:58:00,
2013-01-16 11:03:00,32.0,32.0,29.95,SE,128,0.0,0.0,100,0.00,,-RA,0.37,VWS V14.01,2013-01-16 16:03:00,
2013-01-16 11:08:00,32.0,32.0,29.96,SW,236,0.0,0.0,100,0.00,,-RA,0.37,VWS V14.01,2013-01-16 16:08:00,
2013-01-16 11:13:00,32.0,32.0,29.97,WSW,241,0.0,0.0,100,0.00,,-RA,0.37,VWS V14.01,2013-01-16 16:13:00,
2013-01-16 11:18:00,32.0,32.0,29.93,SSE,152,0.0,0.0,100,0.00,,-RA,0.37,VWS V14.01,2013-01-16 16:18:00,
2013-01-16 11:23:00,32.1,32.1,29.92,SE,134,0.0,0.0,100,0.00,,-RA,0.37,VWS V14.01,2013-01-16 16:23:00,
2013-01-16 11:28:00,32.1,32.1,29.97,WNW,295,0.0,0.0,100,0.00,,-RA,0.37,VWS V14.01,2013-01-16 16:28:00,
2013-01-16 11:33:00,32.1,32.1,29.97,West,271,0.0,0.0,100,0.00,,-RA,0.37,VWS V14.01,2013-01-16 16:33:00,
2013-01-16 11:38:00,32.1,32.1,29.95,NW,305,0.0,0.0,100,0.00,,-RA,0.37,VWS V14.01,2013-01-16 16:38:00,
2013-01-16 11:43:00,32.0,32.0,29.93,ENE,67,0.0,0.0,100,0.00,,-RA,0.37,VWS V14.01,2013-01-16 16:43:00,
2013-01-16 11:48:00,32.0,32.0,29.87,ESE,118,0.0,0.0,100,0.00,,-RA,0.37,VWS V14.01,2013-01-16 16:48:00,
2013-01-16 11:53:00,31.8,31.8,29.85,SE,128,0.0,0.0,100,0.00,,-RA,0.37,VWS V14.01,2013-01-16 16:53:00,
2013-01-16 11:58:00,31.9,31.9,29.84,ESE,121,0.0,0.0,100,0.00,,-RA,0.37,VWS V14.01,2013-01-16 16:58:00,
2013-01-16 12:03:00,32.0,32.0,29.88,West,277,0.0,0.0,100,0.00,,-RA,0.37,VWS V14.01,2013-01-16 17:03:00,
2013-01-16 12:08:00,32.1,32.1,29.92,WNW,286,0.0,0.0,100,0.00,,-RA,0.37,VWS V14.01,2013-01-16 17:08:00,
2013-01-16 12:13:00,32.1,32.1,29.88,NE,56,0.0,0.0,100,0.00,,-RA,0.37,VWS V14.01,2013-01-16 17:13:00,
2013-01-16 12:18:00,32.1,32.1,29.87,NW,305,0.0,0.0,100,0.00,,-RA,0.37,VWS V14.01,2013-01-16 17:18:00,
2013-01-16 12:23:00,32.0,32.0,29.90,WNW,293,0.0,0.0,100,0.00,,-RA,0.37,VWS V14.01,2013-01-16 17:23:00,
2013-01-16 12:28:00,32.0,32.0,29.92,WNW,301,0.0,0.0,100,0.00,,-RA,0.37,VWS V14.01,2013-01-16 17:28:00,
2013-01-16 12:33:00,31.9,31.9,29.84,ESE,113,0.0,0.0,100,0.00,,-RA,0.37,VWS V14.01,2013-01-16 17:33:00,
2013-01-16 12:38:00,31.8,31.8,29.86,NE,56,0.0,0.0,100,0.00,,-RA,0.37,VWS V14.01,2013-01-16 17:38:00,
2013-01-16 12:43:00,31.8,31.8,29.83,ESE,103,0.0,0.0,100,0.00,,-RA,0.37,VWS V14.01,2013-01-16 17:43:00,
2013-01-16 12:48:00,31.9,31.9,29.91,NW,304,0.0,0.0,100,0.00,,-RA,0.37,VWS V14.01,2013-01-16 17:48:00,
2013-01-16 12:53:00,32.0,32.0,29.93,WNW,293,0.0,0.0,100,0.00,,-RA,0.37,VWS V14.01,2013-01-16 17:53:00,
2013-01-16 12:58:00,31.9,31.9,29.91,NW,326,0.0,0.0,100,0.00,,-RA,0.37,VWS V14.01,2013-01-16 17:58:00,
2013-01-16 13:03:00,31.9,31.9,29.89,NNW,345,0.0,0.0,100,0.00,,,0.37,VWS V14.01,2013-01-16 18:03:00,
2013-01-16 13:08:00,31.9,31.9,29.90,NW,318,0.0,0.0,100,0.00,,,0.37,VWS V14.01,2013-01-16 18:08:00,
2013-01-16 13:13:00,31.9,31.9,29.89,North,353,0.0,0.0,100,0.00,,,0.37,VWS V14.01,2013-01-16 18:13:00,
2013-01-16 13:18:00,31.9,31.9,29.89,NNW,340,0.0,0.0,100,0.00,,,0.37,VWS V14.01,2013-01-16 18:18:00,
2013-01-16 13:23:00,31.8,31.8,29.90,NNW,338,0.0,0.0,100,0.00,,,0.37,VWS V14.01,2013-01-16 18:23:00,
2013-01-16 13:28:00,31.8,31.8,29.90,NNW,344,0.0,0.0,100,0.00,,,0.37,VWS V14.01,2013-01-16 18:28:00,
2013-01-16 13:33:00,31.8,31.8,29.89,North,10,0.0,0.0,100,0.00,,,0.37,VWS V14.01,2013-01-16 18:33:00,
2013-01-16 13:38:00,31.8,31.8,29.90,NW,308,0.0,0.0,100,0.00,,,0.37,VWS V14.01,2013-01-16 18:38:00,
2013-01-16 13:43:00,31.8,31.8,29.89,East,101,0.0,0.0,100,0.00,,,0.37,VWS V14.01,2013-01-16 18:43:00,
2013-01-16 13:48:00,31.9,31.9,29.91,WNW,302,0.0,0.0,100,0.00,,,0.37,VWS V14.01,2013-01-16 18:48:00,
2013-01-16 13:53:00,31.8,31.8,29.88,SE,132,0.0,0.0,100,0.00,,,0.37,VWS V14.01,2013-01-16 18:53:00,
2013-01-16 13:58:00,31.8,31.8,29.88,SE,127,0.0,0.0,100,0.00,,,0.37,VWS V14.01,2013-01-16 18:58:00,
2013-01-16 14:03:00,31.8,31.8,29.87,North,10,0.0,0.0,100,0.00,,,0.37,VWS V14.01,2013-01-16 19:03:00,
2013-01-16 14:08:00,31.9,31.9,29.88,West,280,0.0,0.0,100,0.00,,,0.37,VWS V14.01,2013-01-16 19:08:00,
2013-01-16 14:14:00,31.9,31.9,29.88,NW,305,0.0,0.0,100,0.00,,,0.37,VWS V14.01,2013-01-16 19:14:00,
2013-01-16 14:19:00,31.9,31.9,29.89,NW,314,0.0,0.0,100,0.00,,,0.37,VWS V14.01,2013-01-16 19:19:00,
2013-01-16 14:24:00,31.9,31.9,29.88,ESE,104,0.0,0.0,100,0.00,,,0.37,VWS V14.01,2013-01-16 19:24:00,
2013-01-16 14:29:00,31.9,31.9,29.88,ESE,104,0.0,0.0,100,0.00,,,0.37,VWS V14.01,2013-01-16 19:29:00,
2013-01-16 14:34:00,31.9,31.9,29.88,SW,218,0.0,0.0,100,0.00,,,0.37,VWS V14.01,2013-01-16 19:34:00,
2013-01-16 14:39:00,31.9,31.9,29.88,SSW,195,0.0,0.0,100,0.00,,,0.37,VWS V14.01,2013-01-16 19:39:00,
2013-01-16 14:44:00,32.1,32.1,29.89,West,268,0.0,0.0,100,0.00,,,0.37,VWS V14.01,2013-01-16 19:44:00,
2013-01-16 14:49:00,32.1,32.1,29.88,WSW,257,0.0,0.0,100,0.00,,,0.37,VWS V14.01,2013-01-16 19:49:00,
2013-01-16 14:54:00,32.1,32.1,29.89,WSW,257,0.0,0.0,100,0.00,,,0.37,VWS V14.01,2013-01-16 19:54:00,
2013-01-16 14:59:00,32.1,32.1,29.88,WSW,257,0.0,0.0,100,0.00,,,0.37,VWS V14.01,2013-01-16 19:59:00,
2013-01-16 15:04:00,32.1,32.1,29.88,WSW,257,0.0,0.0,100,0.00,,,0.37,VWS V14.01,2013-01-16 20:04:00,
2013-01-16 15:09:00,32.1,32.1,29.89,WSW,257,0.0,0.0,100,0.00,,,0.37,VWS V14.01,2013-01-16 20:09:00,
2013-01-16 15:14:00,32.2,32.2,29.90,WNW,291,0.0,0.0,100,0.00,,,0.37,VWS V14.01,2013-01-16 20:14:00,
2013-01-16 15:19:00,32.3,32.3,29.90,WNW,294,0.0,0.0,100,0.00,,,0.37,VWS V14.01,2013-01-16 20:19:00,
2013-01-16 15:24:00,32.3,32.3,29.91,NW,308,0.0,0.0,100,0.00,,,0.37,VWS V14.01,2013-01-16 20:24:00,
2013-01-16 15:29:00,32.3,32.3,29.91,NW,312,0.0,0.0,100,0.00,,,0.37,VWS V14.01,2013-01-16 20:29:00,
2013-01-16 15:34:00,32.3,32.3,29.92,WNW,288,0.0,0.0,100,0.00,,,0.37,VWS V14.01,2013-01-16 20:34:00,
2013-01-16 15:39:00,32.3,32.3,29.91,WNW,288,0.0,0.0,100,0.00,,,0.37,VWS V14.01,2013-01-16 20:39:00,
2013-01-16 15:44:00,32.3,32.3,29.90,WNW,288,0.0,0.0,100,0.00,,,0.37,VWS V14.01,2013-01-16 20:44:00,
2013-01-16 15:49:00,32.3,32.3,29.90,WNW,288,0.0,0.0,100,0.00,,,0.37,VWS V14.01,2013-01-16 20:49:00,
2013-01-16 15:54:00,32.3,32.3,29.91,West,273,0.0,0.0,100,0.00,,,0.37,VWS V14.01,2013-01-16 20:54:00,
2013-01-16 15:59:00,32.4,32.4,29.92,WNW,289,0.0,0.0,100,0.00,,,0.37,VWS V14.01,2013-01-16 20:59:00,
2013-01-16 16:04:00,32.4,32.4,29.92,NW,314,0.0,0.0,100,0.00,,,0.37,VWS V14.01,2013-01-16 21:04:00,
2013-01-16 16:10:00,32.4,32.4,29.91,WNW,291,0.0,0.0,100,0.00,,,0.37,VWS V14.01,2013-01-16 21:10:00,
2013-01-16 16:15:00,32.4,32.4,29.91,WSW,257,0.0,0.0,100,0.00,,,0.37,VWS V14.01,2013-01-16 21:15:00,
2013-01-16 16:20:00,32.4,32.4,29.92,West,278,0.0,0.0,100,0.00,,,0.37,VWS V14.01,2013-01-16 21:20:00,
2013-01-16 16:25:00,32.4,32.4,29.92,West,267,0.0,0.0,100,0.00,,,0.37,VWS V14.01,2013-01-16 21:25:00,
2013-01-16 16:30:00,32.5,32.5,29.92,West,262,0.0,0.0,100,0.00,,,0.37,VWS V14.01,2013-01-16 21:30:00,
2013-01-16 16:35:00,32.5,32.5,29.92,West,274,0.0,0.0,100,0.00,,,0.37,VWS V14.01,2013-01-16 21:35:00,
2013-01-16 16:40:00,32.6,32.6,29.92,WSW,242,0.0,0.0,100,0.00,,,0.37,VWS V14.01,2013-01-16 21:40:00,
2013-01-16 16:45:00,32.7,32.7,29.92,SW,232,0.0,0.0,100,0.00,,,0.37,VWS V14.01,2013-01-16 21:45:00,
2013-01-16 16:50:00,32.7,32.7,29.92,SE,133,0.0,0.0,100,0.00,,,0.37,VWS V14.01,2013-01-16 21:50:00,
2013-01-16 16:55:00,32.7,32.7,29.92,SE,143,0.0,0.0,100,0.00,,,0.37,VWS V14.01,2013-01-16 21:55:00,
2013-01-16 17:00:00,32.7,32.7,29.92,SSE,164,0.0,0.0,100,0.00,,,0.37,VWS V14.01,2013-01-16 22:00:00,
2013-01-16 17:05:00,32.8,32.8,29.92,SSW,209,0.0,1.0,100,0.00,,,0.37,VWS V14.01,2013-01-16 22:05:00,
2013-01-16 17:10:00,32.8,32.8,29.92,SW,225,0.0,2.0,100,0.00,,,0.37,VWS V14.01,2013-01-16 22:10:00,
2013-01-16 17:15:00,32.9,32.9,29.92,West,266,0.0,3.0,100,0.00,,,0.37,VWS V14.01,2013-01-16 22:15:00,
2013-01-16 17:20:00,32.9,32.9,29.93,West,274,0.0,1.0,100,0.00,,,0.37,VWS V14.01,2013-01-16 22:20:00,
2013-01-16 17:25:00,33.0,33.0,29.93,WSW,249,0.0,0.0,100,0.00,,,0.37,VWS V14.01,2013-01-16 22:25:00,
2013-01-16 17:30:00,33.0,33.0,29.92,South,169,0.0,0.0,100,0.00,,,0.37,VWS V14.01,2013-01-16 22:30:00,
2013-01-16 17:35:00,33.0,33.0,29.92,SW,225,0.0,0.0,100,0.00,,,0.37,VWS V14.01,2013-01-16 22:35:00,
2013-01-16 17:40:00,33.0,33.0,29.92,WSW,253,0.0,0.0,100,0.00,,,0.37,VWS V14.01,2013-01-16 22:40:00,
2013-01-16 17:45:00,33.1,33.1,29.93,West,273,0.0,0.0,100,0.00,,,0.37,VWS V14.01,2013-01-16 22:45:00,
2013-01-16 17:50:00,33.1,33.1,29.93,West,270,0.0,0.0,100,0.00,,,0.37,VWS V14.01,2013-01-16 22:50:00,
2013-01-16 17:55:00,33.0,33.0,29.93,WSW,242,0.0,0.0,100,0.00,,,0.37,VWS V14.01,2013-01-16 22:55:00,
2013-01-16 18:00:00,33.1,33.1,29.92,SSW,194,0.0,0.0,100,0.00,,,0.37,VWS V14.01,2013-01-16 23:00:00,
2013-01-16 18:05:00,33.1,33.1,29.94,West,270,0.0,0.0,100,0.00,,,0.37,VWS V14.01,2013-01-16 23:05:00,
2013-01-16 18:11:00,33.2,33.2,29.93,West,270,0.0,0.0,100,0.00,,,0.37,VWS V14.01,2013-01-16 23:11:00,
2013-01-16 18:16:00,33.1,33.1,29.94,West,269,0.0,0.0,100,0.00,,,0.37,VWS V14.01,2013-01-16 23:16:00,
2013-01-16 18:21:00,33.2,33.2,29.94,West,270,0.0,0.0,100,0.00,,,0.37,VWS V14.01,2013-01-16 23:21:00,
2013-01-16 18:26:00,33.2,33.2,29.94,West,269,0.0,0.0,100,0.00,,,0.37,VWS V14.01,2013-01-16 23:26:00,
2013-01-16 18:31:00,33.2,33.2,29.93,West,268,0.0,0.0,100,0.00,,,0.37,VWS V14.01,2013-01-16 23:31:00,
2013-01-16 18:36:00,33.2,33.2,29.93,West,269,0.0,0.0,100,0.00,,,0.37,VWS V14.01,2013-01-16 23:36:00,
2013-01-16 18:41:00,33.3,33.3,29.93,West,269,0.0,0.0,100,0.00,,,0.37,VWS V14.01,2013-01-16 23:41:00,
2013-01-16 18:46:00,33.3,33.3,29.94,West,268,0.0,0.0,100,0.00,,,0.37,VWS V14.01,2013-01-16 23:46:00,
2013-01-16 18:51:00,33.2,33.2,29.94,West,268,0.0,0.0,100,0.00,,,0.37,VWS V14.01,2013-01-16 23:51:00,
2013-01-16 18:56:00,33.2,33.2,29.94,West,268,0.0,0.0,100,0.00,,,0.37,VWS V14.01,2013-01-16 23:56:00,
2013-01-16 19:01:00,33.3,33.3,29.95,West,268,0.0,0.0,100,0.00,,,0.37,VWS V14.01,2013-01-17 00:01:00,
2013-01-16 19:06:00,33.2,33.2,29.94,West,269,0.0,0.0,100,0.00,,,0.37,VWS V14.01,2013-01-17 00:06:00,
2013-01-16 19:11:00,33.2,33.2,29.95,West,268,0.0,0.0,100,0.01,,,0.38,VWS V14.01,2013-01-17 00:11:00,
2013-01-16 19:16:00,33.2,33.2,29.95,West,269,0.0,0.0,100,0.01,,,0.38,VWS V14.01,2013-01-17 00:16:00,
2013-01-16 19:21:00,33.2,33.2,29.95,WNW,284,0.0,1.0,100,0.01,,,0.38,VWS V14.01,2013-01-17 00:21:00,
2013-01-16 19:26:00,33.3,33.3,29.95,West,281,0.0,1.0,100,0.01,,,0.38,VWS V14.01,2013-01-17 00:26:00,
2013-01-16 19:31:00,33.3,33.3,29.95,West,274,0.0,0.0,100,0.01,,,0.38,VWS V14.01,2013-01-17 00:31:00,
2013-01-16 19:36:00,33.3,33.3,29.95,WSW,249,0.0,1.0,100,0.01,,,0.38,VWS V14.01,2013-01-17 00:36:00,
2013-01-16 19:41:00,33.3,33.3,29.95,WSW,247,0.0,0.0,100,0.01,,,0.38,VWS V14.01,2013-01-17 00:41:00,
2013-01-16 19:46:00,33.3,33.3,29.96,West,264,1.0,1.0,100,0.01,,,0.38,VWS V14.01,2013-01-17 00:46:00,
2013-01-16 19:51:00,33.3,33.3,29.95,WNW,302,0.0,0.0,100,0.01,,,0.38,VWS V14.01,2013-01-17 00:51:00,
2013-01-16 19:56:00,33.3,33.3,29.96,WNW,293,1.0,2.0,100,0.01,,,0.38,VWS V14.01,2013-01-17 00:56:00,
2013-01-16 20:01:00,33.3,33.3,29.96,NW,311,0.0,1.0,100,0.01,,,0.38,VWS V14.01,2013-01-17 01:01:00,
2013-01-16 20:06:00,33.3,33.3,29.95,WNW,287,0.0,3.0,100,0.02,,,0.39,VWS V14.01,2013-01-17 01:06:00,
2013-01-16 20:11:00,33.3,33.3,29.95,NW,316,0.0,2.0,100,0.01,,,0.39,VWS V14.01,2013-01-17 01:11:00,
2013-01-16 20:16:00,33.3,33.3,29.96,WNW,290,0.0,2.0,100,0.01,,,0.39,VWS V14.01,2013-01-17 01:16:00,
2013-01-16 20:21:00,33.3,33.3,29.95,WNW,285,1.0,1.0,100,0.01,,,0.39,VWS V14.01,2013-01-17 01:21:00,
2013-01-16 20:26:00,33.3,33.3,29.96,West,276,0.0,1.0,100,0.01,,,0.39,VWS V14.01,2013-01-17 01:26:00,
2013-01-16 20:31:00,33.3,33.3,29.96,West,280,0.0,1.0,100,0.01,,,0.39,VWS V14.01,2013-01-17 01:31:00,
2013-01-16 20:36:00,33.3,33.3,29.96,West,278,0.0,1.0,100,0.01,,,0.39,VWS V14.01,2013-01-17 01:36:00,
2013-01-16 20:41:00,33.2,33.2,29.96,West,280,0.0,1.0,100,0.01,,,0.39,VWS V14.01,2013-01-17 01:41:00,
2013-01-16 20:46:00,33.2,33.2,29.96,NW,304,1.0,1.0,100,0.01,,,0.39,VWS V14.01,2013-01-17 01:46:00,
2013-01-16 20:51:00,33.2,33.2,29.96,West,281,0.0,1.0,100,0.01,,,0.39,VWS V14.01,2013-01-17 01:51:00,
2013-01-16 20:56:00,33.2,33.2,29.96,WNW,284,0.0,1.0,100,0.01,,,0.39,VWS V14.01,2013-01-17 01:56:00,
2013-01-16 21:01:00,33.1,33.1,29.96,WNW,282,1.0,1.0,100,0.01,,,0.39,VWS V14.01,2013-01-17 02:01:00,
2013-01-16 21:06:00,33.1,33.1,29.95,WSW,249,0.0,0.0,100,0.01,,,0.39,VWS V14.01,2013-01-17 02:06:00,
2013-01-16 21:11:00,33.1,33.1,29.95,West,276,0.0,0.0,100,0.00,,,0.39,VWS V14.01,2013-01-17 02:11:00,
2013-01-16 21:16:00,33.1,33.1,29.95,NW,309,0.0,1.0,100,0.00,,,0.39,VWS V14.01,2013-01-17 02:16:00,
2013-01-16 21:21:00,33.1,33.1,29.95,NW,321,0.0,1.0,100,0.00,,,0.39,VWS V14.01,2013-01-17 02:21:00,
2013-01-16 21:26:00,33.1,33.1,29.95,WNW,290,0.0,0.0,100,0.00,,,0.39,VWS V14.01,2013-01-17 02:26:00,
2013-01-16 21:31:00,33.1,33.1,29.94,WNW,290,0.0,0.0,100,0.00,,,0.39,VWS V14.01,2013-01-17 02:31:00,
2013-01-16 21:36:00,32.9,32.9,29.95,WNW,293,0.0,0.0,100,0.00,,,0.39,VWS V14.01,2013-01-17 02:36:00,
2013-01-16 21:41:00,32.9,32.9,29.95,WNW,289,0.0,0.0,100,0.00,,,0.39,VWS V14.01,2013-01-17 02:41:00,
2013-01-16 21:46:00,32.9,32.9,29.95,WNW,290,0.0,0.0,100,0.00,,,0.39,VWS V14.01,2013-01-17 02:46:00,
2013-01-16 21:51:00,32.9,32.9,29.95,WNW,289,0.0,0.0,100,0.00,,,0.39,VWS V14.01,2013-01-17 02:51:00,
2013-01-16 21:56:00,32.9,32.9,29.95,WNW,291,0.0,0.0,100,0.00,,,0.39,VWS V14.01,2013-01-17 02:56:00,
2013-01-16 22:01:00,32.9,32.9,29.95,WNW,291,0.0,0.0,100,0.00,,,0.39,VWS V14.01,2013-01-17 03:01:00,
2013-01-16 22:06:00,32.9,32.9,29.95,WNW,291,0.0,0.0,100,0.00,,,0.39,VWS V14.01,2013-01-17 03:06:00,
2013-01-16 22:11:00,33.0,33.0,29.94,WNW,291,0.0,0.0,100,0.00,,,0.39,VWS V14.01,2013-01-17 03:11:00,
2013-01-16 22:16:00,33.1,33.1,29.95,WNW,291,0.0,0.0,100,0.00,,,0.39,VWS V14.01,2013-01-17 03:16:00,
2013-01-16 22:21:00,33.3,33.3,29.95,WNW,291,0.0,0.0,100,0.00,,,0.39,VWS V14.01,2013-01-17 03:21:00,
2013-01-16 22:26:00,33.3,33.3,29.95,WNW,291,0.0,0.0,100,0.00,,,0.39,VWS V14.01,2013-01-17 03:26:00,
2013-01-16 22:31:00,33.2,33.2,29.95,WNW,291,0.0,0.0,100,0.00,,,0.39,VWS V14.01,2013-01-17 03:31:00,
2013-01-16 22:36:00,32.9,32.9,29.96,WNW,291,0.0,0.0,100,0.00,,,0.39,VWS V14.01,2013-01-17 03:36:00,
2013-01-16 22:42:00,32.8,32.8,29.96,WNW,291,0.0,0.0,100,0.00,,,0.39,VWS V14.01,2013-01-17 03:42:00,
2013-01-16 22:46:00,32.9,32.9,29.95,WNW,291,0.0,0.0,100,0.00,,,0.39,VWS V14.01,2013-01-17 03:46:00,
2013-01-16 22:51:00,33.2,33.2,29.96,WNW,291,0.0,0.0,100,0.00,,,0.39,VWS V14.01,2013-01-17 03:51:00,
2013-01-16 22:57:00,33.5,33.5,29.96,WNW,291,0.0,0.0,100,0.00,,,0.39,VWS V14.01,2013-01-17 03:57:00,
2013-01-16 23:02:00,33.6,33.6,29.95,WNW,291,0.0,0.0,100,0.00,,,0.39,VWS V14.01,2013-01-17 04:02:00,
2013-01-16 23:07:00,33.6,33.6,29.96,WNW,302,0.0,1.0,100,0.00,,,0.39,VWS V14.01,2013-01-17 04:07:00,
2013-01-16 23:12:00,33.7,33.7,29.96,NW,320,0.0,1.0,100,0.00,,,0.39,VWS V14.01,2013-01-17 04:12:00,
2013-01-16 23:17:00,33.8,33.8,29.96,WNW,297,0.0,0.0,100,0.01,,,0.40,VWS V14.01,2013-01-17 04:17:00,
2013-01-16 23:22:00,33.8,33.8,29.96,WNW,290,0.0,1.0,100,0.01,,,0.40,VWS V14.01,2013-01-17 04:22:00,
2013-01-16 23:27:00,33.8,33.8,29.95,NW,309,0.0,0.0,100,0.01,,,0.40,VWS V14.01,2013-01-17 04:27:00,
2013-01-16 23:32:00,33.9,33.9,29.95,NW,314,0.0,0.0,100,0.01,,,0.40,VWS V14.01,2013-01-17 04:32:00,
2013-01-16 23:37:00,33.9,33.9,29.96,NW,307,0.0,1.0,100,0.01,,,0.40,VWS V14.01,2013-01-17 04:37:00,
2013-01-16 23:42:00,33.9,33.9,29.95,NW,308,0.0,0.0,100,0.01,,,0.40,VWS V14.01,2013-01-17 04:42:00,
2013-01-16 23:47:00,33.9,33.9,29.95,NNE,20,0.0,1.0,100,0.01,,,0.40,VWS V14.01,2013-01-17 04:47:00,
2013-01-16 23:52:00,34.0,34.0,29.96,WNW,289,0.0,1.0,100,0.01,,,0.40,VWS V14.01,2013-01-17 04:52:00,
2013-01-16 23:57:00,34.0,34.0,29.97,WNW,282,0.0,0.0,100,0.01,,,0.40,VWS V14.01,2013-01-17 04:57:00,